map of ZAH home
ZAH - Airport
Location
City:  Zahedan, Sistan va Baluchestan, Iran
Name:Zahedan International Airport
ICAO:OIZH
IATA:ZAH

Details
Type:Airport (Aerodrome, Airfield)
Use:Public/Civil, International (customs port of entry)
Latitude:2928'32"N (29.475686)
Longitude:6054'22"E (60.906189)
Datum:WGS 1984
Elevation:4564 ft (1391 m)
Variation:2.52E (WMM2015v2 magnetic declination)
0.06 annual change
Runways:2
Longest:13993 × 148 ft (4265 × 45 m), paved

Time
Time Zone:UTC+3:30 (DST+4:30)
Local Time:

Weather
METAR:OIZH 041400Z 02014KT 8000 FEW035CB BKN040TCU 10/02 Q1018 A3008 TEMPO SHRA
TAF:OIZH 041100Z 0412/0518 23014KT 6000 SCT035 BKN090
TEMPO 0412/0415 4000 22018G28KT TSRA SA SCT035CB SCT040 BKN090
TEMPO 0415/0421 230035G45KT 1500 SA
BECMG 0421/0423 6000

Related Locations
Nearby:
Farthest:IPC: 11835 mi / 19046 km
Easter Island (Isla de Pascua, Rapa Nui) [Mataveri Intl], VS, CL

Find:

   beyond  
but within

Other Information
Maps:
NOTAMs:
Links:
Sources:

  
  • flag of Iran
  

Sectional Chart

Flight Planning
at skyvector.com

Satellite Image

Google Maps Satellite view

 

Copyright © 2004-2019 Karl L. Swartz. All rights reserved.
The Great Circle Mapper name and logo are trademarks of the Great Circle Mapper.
All other trademarks mentioned herein belong to their respective owners.
Please see credits for attibutions and further copyright information.

  Follow gcmap on Facebook Follow gcmap on Twitter GCmap on LinkedIn

hCard Microformat

Geo Microformat